Time,TemperatureF,DewpointF,PressureIn,WindDirection,WindDirectionDegrees,WindSpeedMPH,WindSpeedGustMPH,Humidity,HourlyPrecipIn,Conditions,Clouds,dailyrainin,SoftwareType,DateUTC
2014-09-17 00:05:00,70.5,68.1,29.98,North,32767,-999.0,0.0,92,0.00,,,0.00,Wunderground v.1.15,2014-09-17 05:05:00,
2014-09-17 00:10:00,70.4,68.3,29.99,North,32767,-999.0,0.0,93,0.00,,,0.00,Wunderground v.1.15,2014-09-17 05:10:00,
2014-09-17 00:14:00,70.4,68.3,29.99,North,32767,-999.0,0.0,93,0.00,,,0.00,Wunderground v.1.15,2014-09-17 05:14:00,
2014-09-17 00:19:00,70.3,68.2,29.99,North,32767,-999.0,0.0,93,0.00,,,0.00,Wunderground v.1.15,2014-09-17 05:19:00,
2014-09-17 00:24:00,70.4,68.3,29.99,North,32767,-999.0,0.0,93,0.00,,,0.00,Wunderground v.1.15,2014-09-17 05:24:00,
2014-09-17 00:29:00,70.4,68.3,29.99,North,32767,-999.0,0.0,93,0.00,,,0.00,Wunderground v.1.15,2014-09-17 05:29:00,
2014-09-17 00:35:00,70.4,68.3,29.99,North,32767,-999.0,0.0,93,0.00,,,0.00,Wunderground v.1.15,2014-09-17 05:35:00,
2014-09-17 00:40:00,70.4,68.0,29.98,North,32767,-999.0,0.0,92,0.00,,,0.00,Wunderground v.1.15,2014-09-17 05:40:00,
2014-09-17 00:45:00,70.4,68.0,29.99,North,32767,-999.0,0.0,92,0.00,,,0.00,Wunderground v.1.15,2014-09-17 05:45:00,
2014-09-17 00:50:00,70.4,68.0,29.98,North,32767,-999.0,0.0,92,0.00,,,0.00,Wunderground v.1.15,2014-09-17 05:50:00,
2014-09-17 00:54:00,70.4,68.0,29.98,North,32767,-999.0,0.0,92,0.00,,,0.00,Wunderground v.1.15,2014-09-17 05:54:00,
2014-09-17 00:59:00,70.4,68.0,29.98,North,32767,-999.0,0.0,92,0.00,,,0.00,Wunderground v.1.15,2014-09-17 05:59:00,
2014-09-17 01:04:00,70.5,68.1,29.98,North,32767,-999.0,0.0,92,0.00,,,0.00,Wunderground v.1.15,2014-09-17 06:04:00,
2014-09-17 01:09:00,70.5,68.1,29.98,North,32767,-999.0,0.0,92,0.00,,,0.00,Wunderground v.1.15,2014-09-17 06:09:00,
2014-09-17 01:15:00,70.4,68.0,29.98,North,32767,-999.0,0.0,92,0.00,,,0.00,Wunderground v.1.15,2014-09-17 06:15:00,
2014-09-17 01:20:00,70.4,68.0,29.98,North,32767,-999.0,0.0,92,0.00,,,0.00,Wunderground v.1.15,2014-09-17 06:20:00,
2014-09-17 01:25:00,70.4,68.0,29.98,North,32767,-999.0,0.0,92,0.00,,,0.00,Wunderground v.1.15,2014-09-17 06:25:00,
2014-09-17 01:30:00,70.4,68.0,29.98,North,32767,-999.0,0.0,92,0.00,,,0.00,Wunderground v.1.15,2014-09-17 06:30:00,
2014-09-17 01:34:00,70.4,68.0,29.98,North,32767,-999.0,0.0,92,0.00,,,0.00,Wunderground v.1.15,2014-09-17 06:34:00,
2014-09-17 01:39:00,70.4,68.0,29.98,North,32767,-999.0,0.0,92,0.00,,,0.00,Wunderground v.1.15,2014-09-17 06:39:00,
2014-09-17 01:44:00,70.4,68.0,29.98,North,32767,-999.0,0.0,92,0.00,,,0.00,Wunderground v.1.15,2014-09-17 06:44:00,
2014-09-17 01:49:00,70.3,67.9,29.98,North,32767,-999.0,0.0,92,0.00,,,0.00,Wunderground v.1.15,2014-09-17 06:49:00,
2014-09-17 01:55:00,70.3,67.9,29.98,North,32767,-999.0,0.0,92,0.00,,,0.00,Wunderground v.1.15,2014-09-17 06:55:00,
2014-09-17 02:00:00,70.3,67.9,29.98,North,32767,-999.0,0.0,92,0.00,,,0.00,Wunderground v.1.15,2014-09-17 07:00:00,
2014-09-17 02:05:00,70.3,67.9,29.98,North,32767,-999.0,0.0,92,0.00,,,0.00,Wunderground v.1.15,2014-09-17 07:05:00,
2014-09-17 02:09:00,70.2,67.8,29.98,North,32767,-999.0,0.0,92,0.00,,,0.00,Wunderground v.1.15,2014-09-17 07:09:00,
2014-09-17 02:15:00,70.2,67.8,29.97,North,32767,-999.0,0.0,92,0.00,,,0.00,Wunderground v.1.15,2014-09-17 07:15:00,
2014-09-17 02:19:00,70.2,67.8,29.97,North,32767,-999.0,0.0,92,0.00,,,0.00,Wunderground v.1.15,2014-09-17 07:19:00,
2014-09-17 02:24:00,70.2,67.8,29.97,North,32767,-999.0,0.0,92,0.00,,,0.00,Wunderground v.1.15,2014-09-17 07:24:00,
2014-09-17 02:30:00,70.1,67.7,29.97,North,32767,-999.0,0.0,92,0.00,,,0.00,Wunderground v.1.15,2014-09-17 07:30:00,
2014-09-17 02:35:00,70.1,67.7,29.97,North,32767,-999.0,0.0,92,0.00,,,0.00,Wunderground v.1.15,2014-09-17 07:35:00,
2014-09-17 02:40:00,70.0,67.6,29.97,North,32767,-999.0,0.0,92,0.00,,,0.00,Wunderground v.1.15,2014-09-17 07:40:00,
2014-09-17 02:45:00,69.9,67.5,29.97,North,32767,-999.0,0.0,92,0.00,,,0.00,Wunderground v.1.15,2014-09-17 07:45:00,
2014-09-17 02:50:00,69.8,67.4,29.97,North,32767,-999.0,0.0,92,0.00,,,0.00,Wunderground v.1.15,2014-09-17 07:50:00,
2014-09-17 02:59:00,69.8,67.1,29.96,North,32767,-999.0,0.0,91,0.00,,,0.00,Wunderground v.1.15,2014-09-17 07:59:00,
2014-09-17 03:04:00,69.7,67.3,29.97,North,32767,-999.0,0.0,92,0.00,,,0.00,Wunderground v.1.15,2014-09-17 08:04:00,
2014-09-17 03:10:00,69.7,67.0,29.96,North,32767,-999.0,0.0,91,0.00,,,0.00,Wunderground v.1.15,2014-09-17 08:10:00,
2014-09-17 03:15:00,69.7,67.3,29.96,North,32767,-999.0,0.0,92,0.00,,,0.00,Wunderground v.1.15,2014-09-17 08:15:00,
2014-09-17 03:20:00,69.7,67.3,29.96,North,32767,-999.0,0.0,92,0.00,,,0.00,Wunderground v.1.15,2014-09-17 08:20:00,
2014-09-17 03:25:00,69.7,67.0,29.96,North,32767,-999.0,0.0,91,0.00,,,0.00,Wunderground v.1.15,2014-09-17 08:25:00,
2014-09-17 03:30:00,69.7,67.0,29.96,North,32767,-999.0,0.0,91,0.00,,,0.00,Wunderground v.1.15,2014-09-17 08:30:00,
2014-09-17 03:34:00,69.8,67.1,29.96,North,32767,-999.0,0.0,91,0.00,,,0.00,Wunderground v.1.15,2014-09-17 08:34:00,
2014-09-17 03:39:00,69.7,67.0,29.96,North,32767,-999.0,0.0,91,0.00,,,0.00,Wunderground v.1.15,2014-09-17 08:39:00,
2014-09-17 03:44:00,69.6,66.9,29.96,North,32767,-999.0,0.0,91,0.00,,,0.00,Wunderground v.1.15,2014-09-17 08:44:00,
2014-09-17 03:50:00,69.5,66.8,29.96,North,32767,-999.0,0.0,91,0.00,,,0.00,Wunderground v.1.15,2014-09-17 08:50:00,
2014-09-17 03:55:00,69.5,66.8,29.96,North,32767,-999.0,0.0,91,0.00,,,0.00,Wunderground v.1.15,2014-09-17 08:55:00,
2014-09-17 04:00:00,69.5,66.8,29.96,North,32767,-999.0,0.0,91,0.00,,,0.00,Wunderground v.1.15,2014-09-17 09:00:00,
2014-09-17 04:05:00,69.4,66.7,29.96,North,32767,-999.0,0.0,91,0.00,,,0.00,Wunderground v.1.15,2014-09-17 09:05:00,
2014-09-17 04:09:00,69.2,66.5,29.96,North,32767,-999.0,0.0,91,0.00,,,0.00,Wunderground v.1.15,2014-09-17 09:09:00,
2014-09-17 04:14:00,69.0,66.3,29.96,North,32767,-999.0,0.0,91,0.00,,,0.00,Wunderground v.1.15,2014-09-17 09:14:00,
2014-09-17 04:19:00,68.8,66.1,29.96,North,32767,-999.0,0.0,91,0.00,,,0.00,Wunderground v.1.15,2014-09-17 09:19:00,
2014-09-17 04:25:00,68.6,65.9,29.96,North,32767,-999.0,0.0,91,0.00,,,0.00,Wunderground v.1.15,2014-09-17 09:25:00,
2014-09-17 04:30:00,68.5,66.1,29.96,North,32767,-999.0,0.0,92,0.00,,,0.00,Wunderground v.1.15,2014-09-17 09:30:00,
2014-09-17 04:35:00,68.3,65.9,29.96,North,32767,-999.0,0.0,92,0.00,,,0.00,Wunderground v.1.15,2014-09-17 09:35:00,
2014-09-17 04:40:00,68.0,65.6,29.96,North,32767,-999.0,0.0,92,0.00,,,0.00,Wunderground v.1.15,2014-09-17 09:40:00,
2014-09-17 04:45:00,67.8,65.4,29.96,North,32767,-999.0,0.0,92,0.00,,,0.00,Wunderground v.1.15,2014-09-17 09:45:00,
2014-09-17 04:49:00,67.6,65.2,29.96,North,32767,-999.0,0.0,92,0.00,,,0.00,Wunderground v.1.15,2014-09-17 09:49:00,
2014-09-17 04:54:00,67.4,65.3,29.96,North,32767,-999.0,0.0,93,0.00,,,0.00,Wunderground v.1.15,2014-09-17 09:54:00,
2014-09-17 04:59:00,67.2,65.1,29.96,North,32767,-999.0,0.0,93,0.00,,,0.00,Wunderground v.1.15,2014-09-17 09:59:00,
2014-09-17 05:05:00,67.1,65.0,29.96,North,32767,-999.0,0.0,93,0.00,,,0.00,Wunderground v.1.15,2014-09-17 10:05:00,
2014-09-17 05:10:00,66.9,64.8,29.96,North,32767,-999.0,0.0,93,0.00,,,0.00,Wunderground v.1.15,2014-09-17 10:10:00,
2014-09-17 05:15:00,66.7,64.6,29.96,North,32767,-999.0,0.0,93,0.00,,,0.00,Wunderground v.1.15,2014-09-17 10:15:00,
2014-09-17 05:20:00,66.6,64.5,29.96,North,32767,-999.0,0.0,93,0.00,,,0.00,Wunderground v.1.15,2014-09-17 10:20:00,
2014-09-17 05:25:00,66.4,64.3,29.96,North,32767,-999.0,0.0,93,0.00,,,0.00,Wunderground v.1.15,2014-09-17 10:25:00,
2014-09-17 05:29:00,66.3,64.5,29.97,North,32767,-999.0,0.0,94,0.00,,,0.00,Wunderground v.1.15,2014-09-17 10:29:00,
2014-09-17 05:34:00,66.2,64.4,29.97,North,32767,-999.0,0.0,94,0.00,,,0.00,Wunderground v.1.15,2014-09-17 10:34:00,
2014-09-17 05:39:00,66.0,64.2,29.97,North,32767,-999.0,0.0,94,0.00,,,0.00,Wunderground v.1.15,2014-09-17 10:39:00,
2014-09-17 05:44:00,65.9,64.1,29.97,North,32767,-999.0,0.0,94,0.00,,,0.00,Wunderground v.1.15,2014-09-17 10:44:00,
2014-09-17 05:50:00,65.7,63.9,29.97,North,32767,-999.0,0.0,94,0.00,,,0.00,Wunderground v.1.15,2014-09-17 10:50:00,
2014-09-17 05:55:00,65.6,63.8,29.97,North,32767,-999.0,0.0,94,0.00,,,0.00,Wunderground v.1.15,2014-09-17 10:55:00,
2014-09-17 06:00:00,65.5,63.7,29.97,North,32767,-999.0,0.0,94,0.00,,,0.00,Wunderground v.1.15,2014-09-17 11:00:00,
2014-09-17 06:04:00,65.4,63.6,29.96,North,32767,-999.0,0.0,94,0.00,,,0.00,Wunderground v.1.15,2014-09-17 11:04:00,
2014-09-17 06:09:00,65.3,63.5,29.97,North,32767,-999.0,0.0,94,0.00,,,0.00,Wunderground v.1.15,2014-09-17 11:09:00,
2014-09-17 06:14:00,65.2,63.4,29.97,North,32767,-999.0,0.0,94,0.00,,,0.00,Wunderground v.1.15,2014-09-17 11:14:00,
2014-09-17 06:19:00,65.2,63.4,29.96,North,32767,-999.0,0.0,94,0.00,,,0.00,Wunderground v.1.15,2014-09-17 11:19:00,
2014-09-17 06:25:00,65.1,63.6,29.96,North,32767,-999.0,0.0,95,0.00,,,0.00,Wunderground v.1.15,2014-09-17 11:25:00,
2014-09-17 06:30:00,65.0,63.5,29.97,North,32767,-999.0,0.0,95,0.00,,,0.00,Wunderground v.1.15,2014-09-17 11:30:00,
2014-09-17 06:35:00,65.0,63.5,29.97,North,32767,-999.0,0.0,95,0.00,,,0.00,Wunderground v.1.15,2014-09-17 11:35:00,
2014-09-17 06:40:00,64.9,63.4,29.96,North,32767,-999.0,0.0,95,0.00,,,0.00,Wunderground v.1.15,2014-09-17 11:40:00,
2014-09-17 06:49:00,64.8,63.3,29.97,North,32767,-999.0,0.0,95,0.00,,,0.00,Wunderground v.1.15,2014-09-17 11:49:00,
2014-09-17 06:54:00,64.8,63.3,29.97,North,32767,-999.0,0.0,95,0.00,,,0.00,Wunderground v.1.15,2014-09-17 11:54:00,
2014-09-17 07:00:00,64.7,63.2,29.97,North,32767,-999.0,0.0,95,0.00,,,0.00,Wunderground v.1.15,2014-09-17 12:00:00,
2014-09-17 07:05:00,64.7,63.2,29.97,North,32767,-999.0,0.0,95,0.00,,,0.00,Wunderground v.1.15,2014-09-17 12:05:00,
2014-09-17 07:10:00,64.7,63.2,29.97,North,32767,-999.0,0.0,95,0.00,,,0.00,Wunderground v.1.15,2014-09-17 12:10:00,
2014-09-17 07:15:00,64.7,63.2,29.97,North,32767,-999.0,0.0,95,0.00,,,0.00,Wunderground v.1.15,2014-09-17 12:15:00,
2014-09-17 07:19:00,64.7,63.2,29.97,North,32767,-999.0,0.0,95,0.00,,,0.00,Wunderground v.1.15,2014-09-17 12:19:00,
2014-09-17 07:24:00,64.7,63.2,29.97,North,32767,-999.0,0.0,95,0.00,,,0.00,Wunderground v.1.15,2014-09-17 12:24:00,
2014-09-17 07:29:00,64.8,63.3,29.97,North,32767,-999.0,0.0,95,0.00,,,0.00,Wunderground v.1.15,2014-09-17 12:29:00,
2014-09-17 07:35:00,65.0,63.5,29.97,North,32767,-999.0,0.0,95,0.00,,,0.00,Wunderground v.1.15,2014-09-17 12:35:00,
2014-09-17 07:40:00,65.1,63.6,29.97,North,32767,-999.0,0.0,95,0.00,,,0.00,Wunderground v.1.15,2014-09-17 12:40:00,
2014-09-17 07:45:00,65.2,63.7,29.97,North,32767,-999.0,0.0,95,0.00,,,0.00,Wunderground v.1.15,2014-09-17 12:45:00,
2014-09-17 07:50:00,65.5,64.0,29.98,North,32767,-999.0,0.0,95,0.00,,,0.00,Wunderground v.1.15,2014-09-17 12:50:00,
2014-09-17 07:54:00,65.7,64.2,29.97,North,32767,-999.0,0.0,95,0.00,,,0.00,Wunderground v.1.15,2014-09-17 12:54:00,
2014-09-17 07:59:00,66.1,64.3,29.97,North,32767,-999.0,0.0,94,0.00,,,0.00,Wunderground v.1.15,2014-09-17 12:59:00,
2014-09-17 08:04:00,66.3,64.5,29.97,North,32767,-999.0,0.0,94,0.00,,,0.00,Wunderground v.1.15,2014-09-17 13:04:00,
2014-09-17 08:09:00,66.5,64.4,29.97,North,32767,-999.0,0.0,93,0.00,,,0.00,Wunderground v.1.15,2014-09-17 13:09:00,
2014-09-17 08:15:00,66.8,64.7,29.97,North,32767,-999.0,0.0,93,0.00,,,0.00,Wunderground v.1.15,2014-09-17 13:15:00,
2014-09-17 08:20:00,67.0,64.9,29.97,North,32767,-999.0,0.0,93,0.00,,,0.00,Wunderground v.1.15,2014-09-17 13:20:00,
2014-09-17 08:25:00,67.4,65.3,29.97,North,32767,-999.0,0.0,93,0.00,,,0.00,Wunderground v.1.15,2014-09-17 13:25:00,
2014-09-17 08:30:00,67.7,65.3,29.97,North,32767,-999.0,0.0,92,0.00,,,0.00,Wunderground v.1.15,2014-09-17 13:30:00,
2014-09-17 08:34:00,68.2,65.5,29.97,North,32767,-999.0,0.0,91,0.00,,,0.00,Wunderground v.1.15,2014-09-17 13:34:00,
2014-09-17 08:39:00,68.8,66.1,29.97,North,32767,-999.0,0.0,91,0.00,,,0.00,Wunderground v.1.15,2014-09-17 13:39:00,
2014-09-17 08:44:00,69.3,65.9,29.97,North,32767,-999.0,0.0,89,0.00,,,0.00,Wunderground v.1.15,2014-09-17 13:44:00,
2014-09-17 08:49:00,69.7,66.0,29.97,North,32767,-999.0,0.0,88,0.00,,,0.00,Wunderground v.1.15,2014-09-17 13:49:00,
2014-09-17 08:55:00,69.9,66.2,29.98,North,32767,-999.0,0.0,88,0.00,,,0.00,Wunderground v.1.15,2014-09-17 13:55:00,
2014-09-17 09:00:00,70.1,66.0,29.97,North,32767,-999.0,0.0,87,0.00,,,0.00,Wunderground v.1.15,2014-09-17 14:00:00,
2014-09-17 09:05:00,70.5,66.4,29.97,North,32767,-999.0,0.0,87,0.00,,,0.00,Wunderground v.1.15,2014-09-17 14:05:00,
2014-09-17 09:09:00,71.1,66.0,29.98,North,32767,-999.0,0.0,84,0.00,,,0.00,Wunderground v.1.15,2014-09-17 14:09:00,
2014-09-17 09:15:00,71.3,66.6,29.98,North,32767,-999.0,0.0,85,0.00,,,0.00,Wunderground v.1.15,2014-09-17 14:15:00,
2014-09-17 09:19:00,71.4,66.3,29.98,North,32767,-999.0,0.0,84,0.00,,,0.00,Wunderground v.1.15,2014-09-17 14:19:00,
2014-09-17 09:24:00,71.7,66.3,29.98,North,32767,-999.0,0.0,83,0.00,,,0.00,Wunderground v.1.15,2014-09-17 14:24:00,
2014-09-17 09:30:00,71.7,65.9,29.97,NW,309,0.0,0.0,82,0.00,,,0.00,Wunderground v.1.15,2014-09-17 14:30:00,
2014-09-17 09:35:00,72.1,67.0,29.97,NW,309,0.0,0.0,84,0.00,,,0.00,Wunderground v.1.15,2014-09-17 14:35:00,
2014-09-17 09:40:00,72.8,67.3,29.98,East,82,0.0,0.0,83,0.00,,,0.00,Wunderground v.1.15,2014-09-17 14:40:00,
2014-09-17 09:45:00,73.3,66.8,29.98,ENE,65,0.0,0.0,80,0.00,,,0.00,Wunderground v.1.15,2014-09-17 14:45:00,
2014-09-17 09:49:00,73.9,68.1,29.97,WNW,286,0.0,0.0,82,0.00,,,0.00,Wunderground v.1.15,2014-09-17 14:49:00,
2014-09-17 09:54:00,74.2,66.1,29.97,WNW,300,0.0,0.0,76,0.00,,,0.00,Wunderground v.1.15,2014-09-17 14:54:00,
2014-09-17 10:00:00,74.4,66.7,29.97,WNW,300,0.0,0.0,77,0.00,,,0.00,Wunderground v.1.15,2014-09-17 15:00:00,
2014-09-17 10:05:00,74.6,66.5,29.98,NNW,327,0.0,0.0,76,0.00,,,0.00,Wunderground v.1.15,2014-09-17 15:05:00,
2014-09-17 10:10:00,74.9,66.1,29.97,NNW,327,0.0,0.0,74,0.00,,,0.00,Wunderground v.1.15,2014-09-17 15:10:00,
2014-09-17 10:15:00,75.1,66.2,29.97,NNW,327,0.0,0.0,74,0.00,,,0.00,Wunderground v.1.15,2014-09-17 15:15:00,
2014-09-17 10:19:00,75.3,66.0,29.98,NNW,327,0.0,0.0,73,0.00,,,0.00,Wunderground v.1.15,2014-09-17 15:19:00,
2014-09-17 10:24:00,75.4,66.1,29.97,NNW,327,0.0,0.0,73,0.00,,,0.00,Wunderground v.1.15,2014-09-17 15:24:00,
2014-09-17 10:29:00,75.8,66.5,29.97,NNW,337,0.0,0.0,73,0.00,,,0.00,Wunderground v.1.15,2014-09-17 15:29:00,
2014-09-17 10:34:00,75.8,66.1,29.97,NNW,330,0.0,0.0,72,0.00,,,0.00,Wunderground v.1.15,2014-09-17 15:34:00,
2014-09-17 10:40:00,75.9,65.4,29.97,NNW,330,0.0,0.0,70,0.00,,,0.00,Wunderground v.1.15,2014-09-17 15:40:00,
2014-09-17 10:45:00,76.1,66.4,29.97,NNW,330,0.0,0.0,72,0.00,,,0.00,Wunderground v.1.15,2014-09-17 15:45:00,
2014-09-17 10:50:00,76.1,67.2,29.97,NNW,347,0.0,0.0,74,0.00,,,0.00,Wunderground v.1.15,2014-09-17 15:50:00,
2014-09-17 10:54:00,76.3,67.4,29.97,SE,144,0.0,0.0,74,0.00,,,0.00,Wunderground v.1.15,2014-09-17 15:54:00,
2014-09-17 10:59:00,76.2,67.3,29.97,SE,144,0.0,0.0,74,0.00,,,0.00,Wunderground v.1.15,2014-09-17 15:59:00,
2014-09-17 11:04:00,75.6,65.5,29.97,SE,144,0.0,0.0,71,0.00,,,0.00,Wunderground v.1.15,2014-09-17 16:04:00,
2014-09-17 11:09:00,75.4,66.9,29.97,SE,144,0.0,0.0,75,0.00,,,0.00,Wunderground v.1.15,2014-09-17 16:09:00,
2014-09-17 11:15:00,75.5,65.8,29.97,SE,144,0.0,0.0,72,0.00,,,0.00,Wunderground v.1.15,2014-09-17 16:15:00,
2014-09-17 11:20:00,75.6,65.5,29.97,SE,144,0.0,0.0,71,0.00,,,0.00,Wunderground v.1.15,2014-09-17 16:20:00,
2014-09-17 11:25:00,76.0,66.3,29.97,SSE,149,0.0,0.0,72,0.00,,,0.00,Wunderground v.1.15,2014-09-17 16:25:00,
2014-09-17 11:30:00,76.3,66.6,29.97,SSE,150,0.0,0.0,72,0.00,,,0.00,Wunderground v.1.15,2014-09-17 16:30:00,
2014-09-17 11:35:00,76.7,67.4,29.96,East,85,0.0,0.0,73,0.00,,,0.00,Wunderground v.1.15,2014-09-17 16:35:00,
2014-09-17 11:39:00,76.7,66.6,29.96,East,84,0.0,0.0,71,0.00,,,0.00,Wunderground v.1.15,2014-09-17 16:39:00,
2014-09-17 11:44:00,76.5,65.6,29.96,East,84,0.0,0.0,69,0.00,,,0.00,Wunderground v.1.15,2014-09-17 16:44:00,
2014-09-17 11:50:00,76.2,66.1,29.96,East,84,0.0,0.0,71,0.00,,,0.00,Wunderground v.1.15,2014-09-17 16:50:00,
2014-09-17 11:55:00,76.0,66.3,29.96,East,84,0.0,0.0,72,0.00,,,0.00,Wunderground v.1.15,2014-09-17 16:55:00,
2014-09-17 12:00:00,76.3,67.0,29.96,ENE,72,0.0,0.0,73,0.00,,,0.00,Wunderground v.1.15,2014-09-17 17:00:00,
2014-09-17 12:05:00,76.5,66.4,29.96,ENE,62,0.0,0.0,71,0.00,,,0.00,Wunderground v.1.15,2014-09-17 17:05:00,
2014-09-17 12:10:00,76.7,67.0,29.96,ENE,62,0.0,0.0,72,0.00,,,0.00,Wunderground v.1.15,2014-09-17 17:10:00,
2014-09-17 12:14:00,76.9,66.4,29.96,ENE,59,0.0,0.0,70,0.00,,,0.00,Wunderground v.1.15,2014-09-17 17:14:00,
2014-09-17 12:19:00,76.8,65.9,29.96,ENE,59,0.0,0.0,69,0.00,,,0.00,Wunderground v.1.15,2014-09-17 17:19:00,
2014-09-17 12:24:00,77.1,67.0,29.96,NE,52,0.0,0.0,71,0.00,,,0.00,Wunderground v.1.15,2014-09-17 17:24:00,
2014-09-17 12:30:00,77.5,67.4,29.96,NNE,20,0.0,0.0,71,0.00,,,0.00,Wunderground v.1.15,2014-09-17 17:30:00,
2014-09-17 12:35:00,77.7,67.1,29.96,NNW,344,0.0,0.0,70,0.00,,,0.00,Wunderground v.1.15,2014-09-17 17:35:00,
2014-09-17 12:40:00,77.6,67.0,29.96,NNW,331,0.0,0.0,70,0.00,,,0.00,Wunderground v.1.15,2014-09-17 17:40:00,
2014-09-17 12:45:00,77.8,67.2,29.95,NNW,330,0.0,0.0,70,0.00,,,0.00,Wunderground v.1.15,2014-09-17 17:45:00,
2014-09-17 12:49:00,77.7,67.1,29.95,NNW,330,0.0,0.0,70,0.00,,,0.00,Wunderground v.1.15,2014-09-17 17:49:00,
2014-09-17 13:00:00,78.0,67.0,29.95,NNW,348,0.0,0.0,69,0.00,,,0.00,Wunderground v.1.15,2014-09-17 18:00:00,
2014-09-17 13:04:00,78.2,67.2,29.95,NNW,340,0.0,0.0,69,0.00,,,0.00,Wunderground v.1.15,2014-09-17 18:04:00,
2014-09-17 13:09:00,78.3,67.3,29.94,North,5,0.0,0.0,69,0.00,,,0.00,Wunderground v.1.15,2014-09-17 18:09:00,
2014-09-17 13:14:00,78.7,68.5,29.94,North,5,0.0,0.0,71,0.00,,,0.00,Wunderground v.1.15,2014-09-17 18:14:00,
2014-09-17 13:19:00,78.9,67.4,29.93,NNW,348,0.0,0.0,68,0.00,,,0.00,Wunderground v.1.15,2014-09-17 18:19:00,
2014-09-17 13:25:00,79.1,68.1,29.93,North,350,0.0,0.0,69,0.00,,,0.00,Wunderground v.1.15,2014-09-17 18:25:00,
2014-09-17 13:30:00,79.7,69.0,29.93,SE,142,0.0,0.0,70,0.00,,,0.00,Wunderground v.1.15,2014-09-17 18:30:00,
2014-09-17 13:35:00,80.0,67.6,29.93,NW,315,0.0,0.0,66,0.00,,,0.00,Wunderground v.1.15,2014-09-17 18:35:00,
2014-09-17 13:39:00,80.0,67.6,29.92,NNE,24,0.0,0.0,66,0.00,,,0.00,Wunderground v.1.15,2014-09-17 18:39:00,
2014-09-17 13:44:00,80.3,68.3,29.92,NNE,24,0.0,0.0,67,0.00,,,0.00,Wunderground v.1.15,2014-09-17 18:44:00,
2014-09-17 13:50:00,80.5,66.7,29.92,NNE,24,0.0,0.0,63,0.00,,,0.00,Wunderground v.1.15,2014-09-17 18:50:00,
2014-09-17 13:55:00,80.6,68.2,29.92,East,79,0.0,0.0,66,0.00,,,0.00,Wunderground v.1.15,2014-09-17 18:55:00,
2014-09-17 14:00:00,80.8,67.9,29.91,East,80,0.0,0.0,65,0.00,,,0.00,Wunderground v.1.15,2014-09-17 19:00:00,
2014-09-17 14:05:00,80.7,66.5,29.92,NW,315,0.0,0.0,62,0.00,,,0.00,Wunderground v.1.15,2014-09-17 19:05:00,
2014-09-17 14:09:00,80.5,66.7,29.92,NW,318,0.0,0.0,63,0.00,,,0.00,Wunderground v.1.15,2014-09-17 19:09:00,
2014-09-17 14:14:00,80.2,66.0,29.92,NW,321,0.0,0.0,62,0.00,,,0.00,Wunderground v.1.15,2014-09-17 19:14:00,
2014-09-17 14:19:00,80.1,66.4,29.91,NW,321,0.0,0.0,63,0.00,,,0.00,Wunderground v.1.15,2014-09-17 19:19:00,
2014-09-17 14:25:00,80.6,67.7,29.91,NW,311,0.0,0.0,65,0.00,,,0.00,Wunderground v.1.15,2014-09-17 19:25:00,
2014-09-17 14:29:00,80.8,67.0,29.91,NW,311,0.0,0.0,63,0.00,,,0.00,Wunderground v.1.15,2014-09-17 19:29:00,
2014-09-17 14:35:00,81.4,67.6,29.91,NW,311,0.0,0.0,63,0.00,,,0.00,Wunderground v.1.15,2014-09-17 19:35:00,
2014-09-17 14:40:00,81.7,66.0,29.91,NW,311,0.0,0.0,59,0.00,,,0.00,Wunderground v.1.15,2014-09-17 19:40:00,
2014-09-17 14:45:00,81.6,66.4,29.91,NW,305,0.0,0.0,60,0.00,,,0.00,Wunderground v.1.15,2014-09-17 19:45:00,
2014-09-17 14:54:00,81.8,67.5,29.91,East,82,0.0,0.0,62,0.00,,,0.00,Wunderground v.1.15,2014-09-17 19:54:00,
2014-09-17 15:05:00,81.5,64.8,29.91,NW,314,0.0,0.0,57,0.00,,,0.00,Wunderground v.1.15,2014-09-17 20:05:00,
2014-09-17 15:10:00,81.7,66.0,29.91,NW,314,0.0,0.0,59,0.00,,,0.00,Wunderground v.1.15,2014-09-17 20:10:00,
2014-09-17 15:19:00,81.8,65.1,29.91,NW,315,0.0,0.0,57,0.00,,,0.00,Wunderground v.1.15,2014-09-17 20:19:00,
2014-09-17 15:24:00,82.0,66.3,29.91,NW,315,0.0,0.0,59,0.00,,,0.00,Wunderground v.1.15,2014-09-17 20:24:00,
2014-09-17 15:30:00,82.3,65.5,29.90,NW,314,0.0,0.0,57,0.00,,,0.00,Wunderground v.1.15,2014-09-17 20:30:00,
2014-09-17 15:35:00,82.2,64.9,29.90,NNW,334,0.0,0.0,56,0.00,,,0.00,Wunderground v.1.15,2014-09-17 20:35:00,
2014-09-17 15:40:00,81.9,64.7,29.91,WNW,298,0.0,0.0,56,0.00,,,0.00,Wunderground v.1.15,2014-09-17 20:40:00,
2014-09-17 15:50:00,82.1,64.8,29.91,WNW,301,0.0,0.0,56,0.00,,,0.00,Wunderground v.1.15,2014-09-17 20:50:00,
2014-09-17 15:55:00,82.1,63.8,29.91,West,278,0.0,0.0,54,0.00,,,0.00,Wunderground v.1.15,2014-09-17 20:55:00,
2014-09-17 16:00:00,81.8,64.1,29.91,NNW,336,0.0,0.0,55,0.00,,,0.00,Wunderground v.1.15,2014-09-17 21:00:00,
2014-09-17 16:05:00,81.6,65.4,29.91,NW,319,0.0,0.0,58,0.00,,,0.00,Wunderground v.1.15,2014-09-17 21:05:00,
2014-09-17 16:09:00,81.4,65.2,29.91,NNW,329,0.0,0.0,58,0.00,,,0.00,Wunderground v.1.15,2014-09-17 21:09:00,
2014-09-17 16:14:00,81.4,64.7,29.91,NW,311,0.0,0.0,57,0.00,,,0.00,Wunderground v.1.15,2014-09-17 21:14:00,
2014-09-17 16:19:00,81.4,64.7,29.91,WNW,298,0.0,0.0,57,0.00,,,0.00,Wunderground v.1.15,2014-09-17 21:19:00,
2014-09-17 16:24:00,81.5,64.3,29.91,WNW,288,0.0,0.0,56,0.00,,,0.00,Wunderground v.1.15,2014-09-17 21:24:00,
2014-09-17 16:30:00,81.7,65.0,29.90,NNW,334,0.0,0.0,57,0.00,,,0.00,Wunderground v.1.15,2014-09-17 21:30:00,
2014-09-17 16:35:00,81.5,63.8,29.91,NW,321,0.0,0.0,55,0.00,,,0.00,Wunderground v.1.15,2014-09-17 21:35:00,
2014-09-17 16:40:00,81.4,63.2,29.90,NW,321,0.0,0.0,54,0.00,,,0.00,Wunderground v.1.15,2014-09-17 21:40:00,
2014-09-17 16:49:00,81.6,62.8,29.91,NW,304,0.0,0.0,53,0.00,,,0.00,Wunderground v.1.15,2014-09-17 21:49:00,
2014-09-17 16:54:00,81.6,64.9,29.91,NW,322,0.0,0.0,57,0.00,,,0.00,Wunderground v.1.15,2014-09-17 21:54:00,
2014-09-17 17:05:00,81.7,65.0,29.90,NW,319,0.0,0.0,57,0.00,,,0.00,Wunderground v.1.15,2014-09-17 22:05:00,
2014-09-17 17:10:00,81.5,65.3,29.90,NNW,342,0.0,0.0,58,0.00,,,0.00,Wunderground v.1.15,2014-09-17 22:10:00,
2014-09-17 17:14:00,81.2,64.5,29.90,NNW,336,0.0,0.0,57,0.00,,,0.00,Wunderground v.1.15,2014-09-17 22:14:00,
2014-09-17 17:19:00,80.9,63.2,29.90,NNW,333,0.0,0.0,55,0.00,,,0.00,Wunderground v.1.15,2014-09-17 22:19:00,
2014-09-17 17:24:00,80.5,63.9,29.91,NNW,333,0.0,0.0,57,0.00,,,0.00,Wunderground v.1.15,2014-09-17 22:24:00,
2014-09-17 17:29:00,80.1,63.5,29.91,NNW,331,0.0,0.0,57,0.00,,,0.00,Wunderground v.1.15,2014-09-17 22:29:00,
2014-09-17 17:35:00,79.8,63.7,29.91,NNW,331,0.0,0.0,58,0.00,,,0.00,Wunderground v.1.15,2014-09-17 22:35:00,
2014-09-17 17:40:00,79.7,63.6,29.90,NNW,332,0.0,0.0,58,0.00,,,0.00,Wunderground v.1.15,2014-09-17 22:40:00,
2014-09-17 17:49:00,79.6,65.0,29.90,NNW,332,0.0,0.0,61,0.00,,,0.00,Wunderground v.1.15,2014-09-17 22:49:00,
2014-09-17 17:55:00,79.6,63.5,29.90,NNW,331,0.0,0.0,58,0.00,,,0.00,Wunderground v.1.15,2014-09-17 22:55:00,
2014-09-17 18:00:00,79.7,64.6,29.90,NNW,332,0.0,0.0,60,0.00,,,0.00,Wunderground v.1.15,2014-09-17 23:00:00,
2014-09-17 18:05:00,79.9,67.5,29.90,NNW,331,0.0,0.0,66,0.00,,,0.00,Wunderground v.1.15,2014-09-17 23:05:00,
2014-09-17 18:10:00,79.9,67.1,29.90,NNW,331,0.0,0.0,65,0.00,,,0.00,Wunderground v.1.15,2014-09-17 23:10:00,
2014-09-17 18:15:00,79.6,68.5,29.90,NNW,331,0.0,0.0,69,0.00,,,0.00,Wunderground v.1.15,2014-09-17 23:15:00,
2014-09-17 18:24:00,78.5,65.8,29.90,NNW,331,0.0,0.0,65,0.00,,,0.00,Wunderground v.1.15,2014-09-17 23:24:00,
2014-09-17 18:29:00,78.0,66.6,29.90,NNW,331,0.0,0.0,68,0.00,,,0.00,Wunderground v.1.15,2014-09-17 23:29:00,
2014-09-17 18:34:00,77.3,67.2,29.90,NNW,331,0.0,0.0,71,0.00,,,0.00,Wunderground v.1.15,2014-09-17 23:34:00,
2014-09-17 18:40:00,76.4,66.7,29.90,NNW,331,0.0,0.0,72,0.00,,,0.00,Wunderground v.1.15,2014-09-17 23:40:00,
2014-09-17 18:45:00,75.7,67.2,29.90,North,32767,-999.0,0.0,75,0.00,,,0.00,Wunderground v.1.15,2014-09-17 23:45:00,
2014-09-17 18:50:00,75.2,67.5,29.90,North,32767,-999.0,0.0,77,0.00,,,0.00,Wunderground v.1.15,2014-09-17 23:50:00,
2014-09-17 18:54:00,74.6,67.7,29.90,North,32767,-999.0,0.0,79,0.00,,,0.00,Wunderground v.1.15,2014-09-17 23:54:00,
2014-09-17 18:59:00,73.9,67.7,29.90,North,32767,-999.0,0.0,81,0.00,,,0.00,Wunderground v.1.15,2014-09-17 23:59:00,
2014-09-17 19:05:00,73.2,67.0,29.90,North,32767,-999.0,0.0,81,0.00,,,0.00,Wunderground v.1.15,2014-09-18 00:05:00,
2014-09-17 19:10:00,72.5,66.7,29.89,North,32767,-999.0,0.0,82,0.00,,,0.00,Wunderground v.1.15,2014-09-18 00:10:00,
2014-09-17 19:15:00,71.9,66.5,29.90,North,32767,-999.0,0.0,83,0.00,,,0.00,Wunderground v.1.15,2014-09-18 00:15:00,
2014-09-17 19:20:00,71.1,65.0,29.91,North,32767,-999.0,0.0,81,0.00,,,0.00,Wunderground v.1.15,2014-09-18 00:20:00,
2014-09-17 19:29:00,70.4,65.3,29.91,North,32767,-999.0,0.0,84,0.00,,,0.00,Wunderground v.1.15,2014-09-18 00:29:00,
2014-09-17 19:35:00,70.0,64.9,29.90,North,32767,-999.0,0.0,84,0.00,,,0.00,Wunderground v.1.15,2014-09-18 00:35:00,
2014-09-17 19:40:00,69.7,65.0,29.90,North,32767,-999.0,0.0,85,0.00,,,0.00,Wunderground v.1.15,2014-09-18 00:40:00,
2014-09-17 19:44:00,69.4,64.7,29.91,North,32767,-999.0,0.0,85,0.00,,,0.00,Wunderground v.1.15,2014-09-18 00:44:00,
2014-09-17 19:49:00,69.1,64.7,29.91,North,32767,-999.0,0.0,86,0.00,,,0.00,Wunderground v.1.15,2014-09-18 00:49:00,
2014-09-17 19:54:00,68.5,64.1,29.91,North,32767,-999.0,0.0,86,0.00,,,0.00,Wunderground v.1.15,2014-09-18 00:54:00,
2014-09-17 20:00:00,68.1,63.4,29.92,North,32767,-999.0,0.0,85,0.00,,,0.00,Wunderground v.1.15,2014-09-18 01:00:00,
2014-09-17 20:05:00,67.9,63.9,29.92,North,32767,-999.0,0.0,87,0.00,,,0.00,Wunderground v.1.15,2014-09-18 01:05:00,
2014-09-17 20:10:00,67.6,63.6,29.92,North,32767,-999.0,0.0,87,0.00,,,0.00,Wunderground v.1.15,2014-09-18 01:10:00,
2014-09-17 20:14:00,67.4,63.7,29.92,North,32767,-999.0,0.0,88,0.00,,,0.00,Wunderground v.1.15,2014-09-18 01:14:00,
2014-09-17 20:20:00,67.2,63.5,29.92,North,32767,-999.0,0.0,88,0.00,,,0.00,Wunderground v.1.15,2014-09-18 01:20:00,
2014-09-17 20:25:00,67.1,63.4,29.92,North,32767,-999.0,0.0,88,0.00,,,0.00,Wunderground v.1.15,2014-09-18 01:25:00,
2014-09-17 20:30:00,66.9,63.6,29.92,North,32767,-999.0,0.0,89,0.00,,,0.00,Wunderground v.1.15,2014-09-18 01:30:00,
2014-09-17 20:35:00,66.8,63.5,29.92,North,32767,-999.0,0.0,89,0.00,,,0.00,Wunderground v.1.15,2014-09-18 01:35:00,
2014-09-17 20:39:00,66.6,63.3,29.92,North,32767,-999.0,0.0,89,0.00,,,0.00,Wunderground v.1.15,2014-09-18 01:39:00,
2014-09-17 20:44:00,66.2,62.5,29.93,North,32767,-999.0,0.0,88,0.00,,,0.00,Wunderground v.1.15,2014-09-18 01:44:00,
2014-09-17 20:49:00,66.0,62.3,29.92,North,32767,-999.0,0.0,88,0.00,,,0.00,Wunderground v.1.15,2014-09-18 01:49:00,
2014-09-17 20:55:00,66.0,62.7,29.92,North,32767,-999.0,0.0,89,0.00,,,0.00,Wunderground v.1.15,2014-09-18 01:55:00,
2014-09-17 21:00:00,65.9,62.6,29.93,North,32767,-999.0,0.0,89,0.00,,,0.00,Wunderground v.1.15,2014-09-18 02:00:00,
2014-09-17 21:05:00,65.7,62.4,29.93,North,32767,-999.0,0.0,89,0.00,,,0.00,Wunderground v.1.15,2014-09-18 02:05:00,
2014-09-17 21:10:00,65.5,62.2,29.93,North,32767,-999.0,0.0,89,0.00,,,0.00,Wunderground v.1.15,2014-09-18 02:10:00,
2014-09-17 21:15:00,65.3,62.0,29.93,North,32767,-999.0,0.0,89,0.00,,,0.00,Wunderground v.1.15,2014-09-18 02:15:00,
2014-09-17 21:19:00,65.1,61.8,29.93,North,32767,-999.0,0.0,89,0.00,,,0.00,Wunderground v.1.15,2014-09-18 02:19:00,
2014-09-17 21:24:00,65.1,62.1,29.93,North,32767,-999.0,0.0,90,0.00,,,0.00,Wunderground v.1.15,2014-09-18 02:24:00,
2014-09-17 21:29:00,65.0,62.0,29.93,North,32767,-999.0,0.0,90,0.00,,,0.00,Wunderground v.1.15,2014-09-18 02:29:00,
2014-09-17 21:34:00,65.0,62.0,29.93,North,32767,-999.0,0.0,90,0.00,,,0.00,Wunderground v.1.15,2014-09-18 02:34:00,
2014-09-17 21:40:00,64.9,61.9,29.93,North,32767,-999.0,0.0,90,0.00,,,0.00,Wunderground v.1.15,2014-09-18 02:40:00,
2014-09-17 21:45:00,64.8,61.8,29.93,North,32767,-999.0,0.0,90,0.00,,,0.00,Wunderground v.1.15,2014-09-18 02:45:00,
2014-09-17 21:50:00,64.8,62.1,29.93,North,32767,-999.0,0.0,91,0.00,,,0.00,Wunderground v.1.15,2014-09-18 02:50:00,
2014-09-17 21:54:00,64.8,62.1,29.91,North,32767,-999.0,0.0,91,0.00,,,0.00,Wunderground v.1.15,2014-09-18 02:54:00,
2014-09-17 22:00:00,64.8,61.8,29.92,North,32767,-999.0,0.0,90,0.00,,,0.00,Wunderground v.1.15,2014-09-18 03:00:00,
2014-09-17 22:05:00,64.8,61.8,29.92,North,32767,-999.0,0.0,90,0.00,,,0.00,Wunderground v.1.15,2014-09-18 03:05:00,
2014-09-17 22:10:00,64.6,61.3,29.93,North,32767,-999.0,0.0,89,0.00,,,0.00,Wunderground v.1.15,2014-09-18 03:10:00,
2014-09-17 22:15:00,64.3,60.7,29.93,North,32767,-999.0,0.0,88,0.00,,,0.00,Wunderground v.1.15,2014-09-18 03:15:00,
2014-09-17 22:20:00,64.1,60.5,29.92,North,32767,-999.0,0.0,88,0.00,,,0.00,Wunderground v.1.15,2014-09-18 03:20:00,
2014-09-17 22:24:00,64.0,60.7,29.93,North,32767,-999.0,0.0,89,0.00,,,0.00,Wunderground v.1.15,2014-09-18 03:24:00,
2014-09-17 22:35:00,63.9,60.9,29.93,North,32767,-999.0,0.0,90,0.00,,,0.00,Wunderground v.1.15,2014-09-18 03:35:00,
2014-09-17 22:40:00,63.8,60.5,29.93,North,32767,-999.0,0.0,89,0.00,,,0.00,Wunderground v.1.15,2014-09-18 03:40:00,
2014-09-17 22:44:00,63.9,60.9,29.93,North,32767,-999.0,0.0,90,0.00,,,0.00,Wunderground v.1.15,2014-09-18 03:44:00,
2014-09-17 22:49:00,63.9,60.9,29.93,North,32767,-999.0,0.0,90,0.00,,,0.00,Wunderground v.1.15,2014-09-18 03:49:00,
2014-09-17 22:54:00,63.9,60.9,29.94,North,32767,-999.0,0.0,90,0.00,,,0.00,Wunderground v.1.15,2014-09-18 03:54:00,
2014-09-17 23:00:00,63.9,60.9,29.94,North,32767,-999.0,0.0,90,0.00,,,0.00,Wunderground v.1.15,2014-09-18 04:00:00,
2014-09-17 23:05:00,63.9,60.9,29.94,North,32767,-999.0,0.0,90,0.00,,,0.00,Wunderground v.1.15,2014-09-18 04:05:00,
2014-09-17 23:10:00,63.9,60.9,29.94,North,32767,-999.0,0.0,90,0.00,,,0.00,Wunderground v.1.15,2014-09-18 04:10:00,
2014-09-17 23:14:00,64.1,60.8,29.94,North,32767,-999.0,0.0,89,0.00,,,0.00,Wunderground v.1.15,2014-09-18 04:14:00,
2014-09-17 23:19:00,64.6,61.0,29.94,North,32767,-999.0,0.0,88,0.00,,,0.00,Wunderground v.1.15,2014-09-18 04:19:00,
2014-09-17 23:24:00,65.0,61.7,29.94,North,32767,-999.0,0.0,89,0.00,,,0.00,Wunderground v.1.15,2014-09-18 04:24:00,
2014-09-17 23:29:00,65.1,61.8,29.94,North,32767,-999.0,0.0,89,0.00,,,0.00,Wunderground v.1.15,2014-09-18 04:29:00,
2014-09-17 23:35:00,65.2,61.9,29.94,North,32767,-999.0,0.0,89,0.00,,,0.00,Wunderground v.1.15,2014-09-18 04:35:00,
2014-09-17 23:40:00,65.3,62.0,29.93,North,32767,-999.0,0.0,89,0.00,,,0.00,Wunderground v.1.15,2014-09-18 04:40:00,